{"data":{"norad_id":61553,"epoch":"2026-05-25T04:14:45.709152Z","epoch_age_seconds":53015,"freshness":"FRESH","line1":"1 61553U 24185B   26145.17691793  .00000291  00000+0  16019-3 0  9992","line2":"2 61553  88.9847  59.6867 0005508 160.7360 199.4033 14.09001867 92509","mean_motion":14.09001867,"eccentricity":0.0005508,"inclination_deg":88.9847,"raan_deg":59.6867,"arg_perigee_deg":160.736,"mean_anomaly_deg":199.4033,"bstar":0.00016019,"rev_number":9250,"period_min":102.20000652419,"perigee_km":858.80102776638,"apogee_km":866.77763221149,"semimajor_km":7240.9263299889,"source":"CELESTRAK","updated_at":"2026-05-25T13:38:02.412473Z"}}